Theta_e
334 330 322 315 303 303 300 304 310 312 314 315 317 314 311 313 314 309 326 339 342 341 345 348 353 352 351 350 349 348 347 346 344 343 340 338 338 336 336 335 335 335 334 334 334 334 335 336 336
326 321 314 313 300 296 300 308 311 315 318 320 320 316 314 314 324 326 327 342 342 340 343 344 352 352 351 350 349 348 347 346 346 343 340 339 338 337 336 336 336 337 336 336 337 337 337 338 338
330 326 307 305 303 299 299 311 315 319 321 319 317 320 317 317 327 327 331 344 342 339 341 342 352 351 351 350 349 348 348 347 346 343 341 340 339 339 340 338 338 339 340 340 341 341 340 340 341
318 317 310 303 302 307 309 313 319 319 322 321 319 315 319 327 325 330 341 344 342 340 339 347 353 352 351 351 350 349 349 348 347 345 344 342 342 342 342 341 341 341 341 342 343 344 344 343 343
317 312 300 300 303 309 313 316 319 318 320 320 320 315 316 323 329 330 336 343 341 341 339 347 352 352 353 352 351 350 350 349 348 348 346 345 346 346 344 342 342 342 344 345 345 344 343 343 343
307 308 298 298 303 310 313 314 320 319 319 319 319 317 316 323 324 328 330 332 341 340 339 346 352 353 352 352 351 350 350 349 349 349 349 348 348 348 347 345 344 344 346 346 343 343 341 341 341
307 302 298 301 303 307 312 316 312 311 313 316 319 314 317 321 325 326 328 329 329 341 341 344 346 349 354 352 351 351 349 349 348 348 348 349 349 348 348 348 347 346 348 345 344 341 339 339 339
313 303 298 301 302 304 313 315 312 314 315 323 322 314 313 321 326 326 324 327 327 337 344 343 344 345 346 347 353 351 350 350 349 348 349 349 349 348 349 348 349 348 347 346 343 340 339 338 338
321 301 297 300 303 306 314 311 317 320 317 318 320 320 323 324 325 320 318 319 322 330 343 344 343 344 343 344 348 351 352 351 350 349 349 347 341 343 344 346 348 348 348 346 343 340 340 338 338
315 302 301 307 308 308 312 313 315 316 316 316 318 322 324 322 320 317 316 316 316 317 340 344 343 343 343 345 344 345 345 344 345 344 343 342 339 336 340 343 349 349 349 347 344 342 340 338 330
311 305 309 309 311 312 312 314 318 314 312 315 315 319 322 321 319 318 317 316 316 319 327 343 343 344 343 342 342 344 344 343 344 342 339 341 339 337 339 334 340 341 345 336 339 336 334 330 328
304 311 312 312 313 312 311 315 314 315 313 317 319 321 321 320 317 317 317 317 317 318 319 335 343 345 343 343 340 343 342 342 342 341 337 338 338 338 336 331 332 333 333 331 330 331 332 329 330
306 307 310 313 314 314 315 313 313 314 318 318 319 320 317 317 318 319 319 318 318 316 319 325 335 344 343 339 340 342 342 341 340 339 339 338 338 336 332 329 330 331 330 332 330 330 332 328 328
306 309 310 311 310 311 310 311 312 314 317 316 317 316 316 317 317 317 318 318 318 319 321 322 334 339 341 339 339 343 343 342 340 339 339 341 340 334 332 332 332 330 330 327 329 328 327 326 327
304 301 305 307 310 309 311 306 308 314 315 315 314 315 316 316 317 317 318 318 320 324 322 323 326 336 339 338 340 342 343 342 340 339 341 342 337 333 333 330 331 331 330 330 329 329 328 327 326
302 301 296 303 306 309 309 301 309 313 313 313 315 316 315 315 317 318 318 318 322 323 322 324 344 340 340 338 340 343 342 339 338 336 340 339 335 333 333 331 330 331 330 328 327 327 326 326 326
297 293 296 299 307 306 306 302 310 313 313 312 314 314 315 315 316 317 320 318 318 322 321 326 335 340 341 341 340 341 340 335 334 332 333 337 336 337 333 332 330 331 330 329 328 326 325 324 324
291 294 297 297 303 305 303 303 308 311 311 311 312 314 315 315 314 316 319 321 321 326 331 331 339 341 342 343 341 340 335 333 332 332 332 334 335 336 333 331 330 331 328 326 326 325 324 323 323
297 297 296 300 304 302 302 303 306 310 308 308 309 310 311 313 315 316 320 319 326 326 330 334 340 340 344 341 339 334 331 330 332 334 332 336 335 336 333 334 330 330 327 326 326 324 322 320 322
295 292 292 299 304 302 302 301 306 309 308 309 310 311 310 312 314 316 317 320 326 327 333 335 338 340 339 340 336 333 330 329 328 330 331 333 334 332 331 330 329 327 327 326 326 325 319 318 320
293 292 293 293 298 300 299 297 300 305 307 310 310 310 311 312 311 313 314 325 327 329 331 332 335 338 338 338 335 332 330 328 327 327 329 331 332 332 330 330 328 328 327 323 322 322 320 317 319
290 297 297 296 294 289 297 288 297 301 303 306 309 308 309 309 312 312 312 325 327 329 331 334 337 337 335 334 332 329 324 323 325 325 328 331 332 334 332 330 328 326 325 323 323 325 322 321 318
292 299 297 296 293 292 293 289 295 300 300 303 305 308 309 310 311 312 313 328 328 330 331 335 335 333 335 331 331 327 324 326 327 328 328 329 329 331 332 330 328 326 325 324 323 323 322 321 318
298 296 295 295 292 285 291 291 292 295 299 302 306 308 309 309 310 316 327 329 329 332 333 334 332 332 332 331 330 325 324 325 324 325 324 324 326 327 329 330 327 326 325 324 323 323 322 323 323
292 289 283 282 283 283 293 291 294 298 303 305 305 307 308 310 313 324 325 326 328 329 331 331 330 329 329 332 329 329 326 325 325 325 325 325 325 326 326 326 326 325 325 326 326 324 324 324 323
288 289 284 278 281 285 293 288 292 302 305 307 308 308 312 313 322 323 325 325 327 330 330 329 329 328 329 328 328 328 327 326 327 326 326 326 325 326 326 326 326 327 327 327 326 325 323 323 322
288 285 293 287 289 285 289 293 299 302 302 305 306 310 317 320 322 323 324 325 328 329 328 328 328 327 329 328 327 328 328 328 327 327 326 327 326 326 326 326 326 327 327 326 325 323 324 324 321
294 293 285 288 280 280 288 290 291 298 302 303 306 310 317 320 321 322 323 326 328 328 328 328 328 327 328 328 327 328 328 329 328 326 325 326 326 326 326 327 327 327 326 326 327 324 325 322 323
290 288 288 288 288 283 283 288 299 300 303 303 306 317 318 318 320 322 324 326 327 328 328 327 327 327 326 326 326 328 328 329 327 327 327 325 325 326 327 329 328 327 327 327 324 323 326 325 323
293 290 289 284 284 289 288 289 302 306 305 306 312 317 318 320 321 323 324 325 325 326 326 325 325 325 326 327 327 327 330 328 326 326 326 324 326 324 326 328 328 328 327 325 324 324 325 325 324
Wind_Speed
3 3 2 2 3 2 5 9 10 12 5 4 6 6 2 4 5 6 5 12 18 17 15 17 20 20 19 18 18 17 17 16 15 13 12 12 11 10 9 8 7 6 4 4 3 2 1 1 2
2 5 2 2 2 2 6 9 1 4 3 11 12 1 3 8 7 10 8 16 19 18 14 14 20 19 19 19 18 17 17 15 14 13 12 11 10 9 8 8 7 7 6 5 4 4 4 4 4
2 4 1 4 4 6 5 5 9 13 6 2 4 8 5 7 6 7 14 17 17 15 13 13 20 19 19 19 18 17 16 16 15 15 14 13 12 10 9 8 8 7 7 7 6 6 6 6 7
2 1 4 2 10 12 15 11 6 6 22 5 9 2 5 2 6 9 19 19 17 15 14 14 19 18 18 19 18 18 17 17 17 16 15 14 12 11 10 9 9 9 8 7 8 9 8 8 8
2 3 3 5 9 13 17 9 9 8 11 5 19 2 6 5 11 10 18 18 18 16 16 18 22 19 18 18 19 19 19 19 19 18 17 16 14 13 12 11 10 9 9 9 9 6 5 6 7
1 3 2 7 12 18 17 11 7 12 18 12 1 10 4 7 9 9 9 15 17 19 18 19 27 25 22 20 19 19 19 19 20 20 19 18 17 15 13 13 12 11 11 10 8 7 7 6 7
3 4 6 8 13 20 16 9 11 4 8 4 3 5 4 5 8 10 11 10 13 17 17 16 18 24 27 25 23 22 21 20 19 19 19 18 17 15 14 14 14 13 11 11 10 9 9 9 9
4 3 6 6 12 19 16 12 4 5 2 5 7 2 7 7 11 9 8 10 9 15 16 15 15 17 17 18 26 24 22 21 19 18 17 17 16 15 15 15 14 14 13 13 12 12 11 10 10
9 5 8 11 13 17 19 13 8 5 8 4 4 2 1 8 8 5 5 4 6 10 14 14 17 17 17 15 17 23 24 21 19 18 17 13 6 8 12 14 17 15 16 15 13 14 13 12 12
12 9 17 17 13 16 18 15 14 6 5 3 4 5 9 8 3 2 2 3 4 4 15 15 15 15 14 13 15 14 14 12 11 10 9 6 7 6 10 11 20 18 18 15 15 15 14 12 4
12 19 16 18 17 20 22 19 16 12 7 5 5 8 18 13 10 3 1 3 6 8 8 15 15 15 17 13 11 8 7 8 8 11 8 8 6 6 6 3 3 7 12 6 8 7 5 5 5
19 21 19 22 21 23 25 21 20 16 10 8 10 12 10 12 7 6 6 6 7 8 6 17 17 16 16 10 11 11 9 9 8 10 11 8 6 5 4 3 4 4 4 6 5 4 6 6 7
24 20 19 20 19 23 24 26 23 21 19 13 11 17 10 9 10 9 10 9 9 8 6 8 13 16 15 12 10 11 11 10 11 10 12 10 6 5 5 5 4 4 4 5 4 4 4 5 6
15 15 22 18 21 22 24 25 20 20 19 14 13 13 10 10 11 8 9 10 9 8 9 6 12 16 16 14 13 11 10 10 10 9 10 12 7 5 5 4 4 5 5 5 4 4 4 3 2
18 21 21 24 22 25 22 30 31 19 14 16 15 17 17 11 11 11 11 11 10 7 8 9 9 11 15 15 10 10 10 9 10 9 11 12 9 7 6 4 3 4 3 4 3 3 2 2 3
17 16 23 21 21 22 17 41 13 14 14 14 18 18 11 11 10 13 12 9 10 7 9 9 8 11 11 11 7 7 8 6 7 6 8 12 8 8 5 3 3 4 3 3 2 2 3 3 4
13 21 24 26 22 18 15 29 19 17 19 22 22 22 19 16 11 8 9 9 10 10 7 7 9 10 10 8 7 6 7 5 5 5 6 9 8 7 6 4 4 5 4 3 3 3 3 3 3
11 21 27 29 11 14 21 27 30 29 21 23 22 20 19 18 13 9 9 10 9 6 6 7 7 9 9 7 6 5 5 5 5 5 5 7 7 8 6 4 4 5 4 3 3 5 4 3 4
14 21 20 17 18 16 21 23 25 18 10 13 12 11 11 10 12 9 8 7 7 6 8 8 10 8 9 7 6 4 4 4 3 4 7 8 7 7 6 5 5 4 4 5 5 4 5 3 2
20 25 24 15 14 16 22 20 25 22 18 19 23 18 11 8 8 7 4 5 7 7 8 8 9 9 6 6 4 4 5 3 4 3 6 7 8 7 6 6 5 5 4 5 4 4 1 2 3
25 27 19 21 13 23 16 15 18 17 16 13 10 11 8 11 10 8 8 9 9 10 9 8 9 9 8 8 5 4 4 4 3 1 2 4 7 6 6 6 4 5 3 2 3 5 6 4 3
25 13 20 21 13 19 6 18 21 16 20 16 18 10 13 11 8 8 7 9 10 8 8 9 9 9 8 8 6 5 5 4 3 4 3 4 6 5 6 4 4 4 3 4 4 5 4 4 4
23 14 18 16 14 15 19 10 26 11 12 9 8 15 13 11 11 13 9 14 10 10 9 9 9 8 8 7 7 6 5 3 3 4 7 5 4 5 5 5 4 4 4 4 4 4 5 4 4
17 17 21 14 9 13 19 14 29 17 19 5 10 11 10 10 11 7 14 17 12 10 11 10 9 6 8 8 8 8 7 5 5 5 5 3 2 2 3 5 4 5 4 4 3 5 5 5 4
14 14 8 10 11 20 11 13 20 7 12 16 15 14 12 10 9 16 18 16 13 13 12 9 8 7 8 8 8 8 7 7 6 6 4 5 2 1 3 3 4 3 4 4 4 4 4 5 3
13 12 11 16 14 15 11 13 8 15 16 16 19 14 2 10 15 18 17 14 15 14 12 10 9 8 8 8 8 7 7 4 4 4 3 4 3 3 4 4 5 5 4 4 4 2 3 3 3
21 19 13 17 18 5 8 9 25 24 23 15 11 7 12 16 16 15 15 14 15 14 11 10 10 7 8 8 7 6 6 6 5 4 4 3 4 3 4 5 4 4 5 4 3 3 4 3 3
14 10 5 11 17 17 8 13 11 16 14 22 10 12 14 14 15 15 13 14 13 12 10 10 9 8 7 8 7 6 6 7 6 5 4 5 4 4 5 4 4 3 3 3 5 3 3 5 1
7 14 12 7 11 13 8 11 16 21 21 14 11 19 18 17 16 14 14 14 13 11 12 10 9 8 8 8 6 7 6 6 6 6 4 4 5 6 6 5 4 4 3 3 3 4 4 5 3
16 18 16 10 9 12 7 12 7 8 7 13 19 19 17 18 17 15 16 15 13 12 9 9 8 8 8 7 6 6 6 7 6 5 5 4 5 5 6 6 6 4 5 3 3 4 4 4 4
Wind_Direction
163 193 222 309 39 164 250 251 233 264 322 0 53 66 44 62 96 163 193 122 130 144 160 165 166 165 162 160 157 157 154 156 156 154 152 152 151 154 152 158 164 164 168 165 175 203 255 279 272
206 218 274 261 149 246 264 265 197 192 349 25 347 209 55 69 98 128 113 145 142 147 158 166 171 169 167 162 163 163 160 158 156 160 158 159 163 165 166 174 189 186 196 212 221 228 236 250 257
307 272 97 183 208 205 241 298 60 347 69 83 340 330 88 121 114 137 140 141 133 144 157 168 172 172 172 167 168 167 164 160 165 168 169 172 176 177 183 189 205 210 214 223 232 245 248 249 238
222 281 302 242 257 267 250 264 81 351 308 199 256 53 54 55 120 149 136 135 134 146 155 166 176 177 177 174 171 171 171 167 173 177 177 182 186 188 193 206 218 223 230 242 249 252 253 256 259
255 269 246 227 254 266 266 227 127 203 216 292 235 151 97 65 111 115 138 146 145 156 164 163 176 181 182 183 178 178 180 176 181 183 184 188 191 194 199 215 225 232 237 244 257 271 275 266 268
298 207 261 242 259 262 276 287 178 178 186 224 260 275 135 149 111 145 141 163 161 164 168 169 175 178 181 186 187 185 187 189 188 185 188 190 194 195 199 211 224 234 244 243 248 251 260 262 265
180 304 244 265 275 285 282 337 314 13 358 122 99 69 148 128 158 160 167 186 165 167 163 170 180 180 180 183 187 188 189 195 199 194 193 193 197 193 199 212 219 227 237 231 238 244 245 251 255
216 191 287 271 275 284 290 308 306 306 327 133 110 193 187 214 185 175 182 185 191 164 170 171 173 181 185 188 185 187 192 193 197 203 204 200 200 199 201 213 221 223 217 223 230 237 243 248 245
222 243 257 252 247 260 295 310 319 72 291 350 69 29 358 170 187 155 198 195 192 166 170 173 178 182 185 188 191 186 190 194 196 203 207 205 199 205 209 212 221 217 219 214 221 232 240 250 250
221 226 230 247 260 269 282 292 311 341 300 241 319 327 330 301 98 173 248 286 285 255 183 179 178 180 176 185 188 191 188 189 189 195 199 195 203 215 217 218 224 207 217 205 218 229 237 247 228
234 237 237 262 270 273 279 288 305 294 261 303 240 342 284 296 284 199 221 216 250 257 155 183 182 178 179 188 180 182 187 182 183 186 178 193 204 221 226 220 223 201 205 189 216 231 228 211 223
240 234 236 247 254 268 273 284 284 288 274 276 285 222 243 245 259 221 222 246 260 252 244 183 184 178 189 181 179 176 180 184 183 192 181 186 200 212 227 210 197 172 178 195 205 208 206 217 223
233 244 242 246 249 255 269 273 274 277 286 278 284 286 272 261 256 230 211 224 238 249 231 164 164 182 185 187 180 177 184 184 181 181 190 191 182 192 200 220 183 183 171 192 209 204 196 212 234
266 251 250 250 245 252 259 266 265 262 270 267 270 270 269 262 257 256 230 228 237 215 216 201 173 182 181 187 178 182 179 178 177 182 188 184 177 179 187 206 221 178 184 183 166 174 176 186 225
265 268 268 254 252 252 262 265 254 266 275 280 269 266 268 257 256 246 224 218 203 197 204 220 202 174 180 178 164 175 179 172 182 187 180 172 163 173 171 192 218 208 189 164 153 167 176 201 233
250 264 257 251 255 252 250 260 261 280 276 274 284 274 263 256 254 262 244 213 197 190 205 225 160 169 168 172 158 155 171 156 167 148 154 158 158 163 171 193 206 205 165 157 161 189 219 221 227
229 238 249 254 235 246 234 270 267 268 261 256 257 263 265 256 253 254 251 208 212 208 222 189 158 162 159 148 145 138 144 129 138 130 138 155 173 162 162 184 205 150 148 175 179 222 193 215 234
210 225 234 248 239 238 241 252 263 261 256 258 258 256 253 250 236 238 226 226 209 197 170 147 143 145 139 127 117 106 108 123 121 137 151 168 161 167 171 192 211 163 154 207 186 207 221 191 216
256 239 254 248 239 262 258 259 265 271 240 260 265 259 249 232 224 227 247 213 123 121 117 138 135 148 139 147 139 123 140 141 120 144 156 166 164 173 184 175 167 168 194 206 198 184 204 245 230
246 260 262 274 244 254 251 257 248 251 259 249 254 253 247 239 229 231 208 175 142 134 123 122 125 141 127 132 118 127 135 149 143 157 180 158 161 165 164 172 175 198 199 221 206 171 148 217 190
230 238 251 256 284 281 294 289 278 286 276 268 246 238 232 212 216 217 231 161 142 142 139 134 129 133 122 130 116 101 84 56 73 134 163 171 149 140 144 157 186 197 197 221 192 179 184 200 212
241 240 242 253 256 258 236 273 266 267 266 267 264 272 257 240 223 220 211 142 146 149 134 121 124 124 125 132 114 127 141 138 185 159 148 134 137 145 149 153 160 176 187 196 210 196 188 160 203
252 258 236 259 244 259 251 264 264 211 244 245 262 254 242 234 221 224 202 142 141 136 117 120 118 115 118 126 128 129 117 137 126 119 109 113 103 127 156 163 179 187 189 206 203 187 193 184 171
261 244 249 265 256 254 241 226 263 242 247 239 248 261 251 247 233 134 122 124 126 117 118 121 119 124 115 123 127 124 109 88 102 101 113 127 130 163 180 178 162 186 190 208 214 205 195 194 200
268 228 245 239 229 239 218 241 238 257 222 223 244 253 258 244 129 130 128 131 133 131 125 122 123 125 120 112 113 101 115 109 111 118 136 132 131 181 214 151 159 182 198 211 201 188 196 192 190
262 235 213 219 222 251 245 243 238 242 257 232 247 252 207 110 121 130 133 134 134 131 130 128 128 126 116 118 118 115 114 107 108 114 114 145 162 166 174 159 173 202 198 198 195 172 198 183 209
255 253 246 251 281 252 235 240 262 255 261 245 238 154 113 124 127 130 130 133 133 133 136 131 131 129 126 129 129 124 116 111 123 125 130 137 137 161 171 164 183 204 187 188 171 187 191 162 134
268 258 258 220 230 252 267 238 262 265 261 228 196 149 129 124 123 129 129 130 132 137 134 129 133 139 143 138 137 142 152 148 145 128 133 148 153 126 141 144 159 146 172 150 155 189 165 128 119
304 245 238 271 209 231 264 261 257 254 241 200 162 147 138 134 133 135 131 132 137 131 139 139 136 141 138 140 155 145 143 144 135 120 147 142 144 151 152 161 159 169 167 122 144 134 132 145 134
285 284 228 226 257 233 257 256 261 305 137 156 143 143 139 137 137 136 135 136 137 137 137 137 139 139 145 144 145 139 140 123 125 141 153 164 166 160 158 178 169 151 114 93 155 177 199 153 147